Simultaneous Nadir Overpasses (SNOs) Predictions

Prediction of SNOs between GOES-16 and NOAA-19 Satellite Orbit:

Table of predicted SNOs for the next 14.0 days since TLE Epoch: 4/20/2017
Index Date Time (GOES-16) GOES-16 Lat,Lon NOAA-19 Lat,Lon Distance(km) Time Diff (sec)
1 04/20/2017 21:07:20 -0.00, -89.48 0.18, -88.76 82.39 80
2 04/21/2017 20:55:54 -0.00, -89.48 0.81, -85.98 399.76 80
3 04/23/2017 09:28:48 0.00, -89.50 1.00, -93.87 499.28 80
4 04/24/2017 09:17:22 0.00, -89.49 0.36, -91.09 181.97 80
5 04/25/2017 09:03:15 0.00, -89.49 -0.27, -88.30 135.36 80
6 04/26/2017 08:51:49 0.00, -89.48 -0.91, -85.51 452.71 80
7 04/27/2017 21:25:01 -0.00, -89.45 -0.92, -93.48 460.22 80
8 04/28/2017 21:13:35 -0.00, -89.44 -0.27, -90.70 142.64 80
9 04/29/2017 21:04:47 -0.00, -89.44 0.32, -87.90 175.07 80
10 04/30/2017 20:53:21 -0.01, -89.44 0.98, -85.12 492.82 80
11 05/02/2017 09:26:16 0.01, -89.46 0.84, -93.02 405.51 80
12 05/03/2017 09:14:50 0.02, -89.46 0.20, -90.23 87.59 80
13 05/04/2017 09:00:43 0.02, -89.46 -0.44, -87.44 230.46 80




NCC Satellite Simultaneous Nadir Overpasses (SNOs) Prediction Service
